WA7SB-7 Weather Reports


Display with metric or nautical units.
time (UTC)temp
F
wind
direction
speed
MPH
gust
MPH
rain 1hr
in
rain 24hr
in
rain mn
in
humidity
%
barometer
mb
20260903082033 56 129 2.0 6.0 0.00 0.95 0.00 95 1010.1
20260903081914 56 297 3.0 6.0 0.00 0.95 0.00 95 1010.2
20260903081518 56 78 2.0 9.0 0.00 0.95 0.00 95 1010.2
20260903081418 56 290 3.0 9.0 0.00 0.95 0.00 95 1010.3
20260903081023 56 65 3.0 9.0 0.00 0.95 0.00 95 1010.2
20260903080923 56 259 3.0 9.0 0.00 0.95 0.00 95 1010.3
20260903080530 56 321 2.0 6.0 0.00 0.95 0.00 95 1010.2
20260903080428 56 44 2.0 6.0 0.00 0.95 0.00 95 1010.2
20260903080025 56 350 2.0 8.0 0.00 0.95 0.00 95 1010.3
20260903075927 56 312 3.0 8.0 0.00 0.95 0.00 95 1010.1
20260903075529 56 171 2.0 8.0 0.00 0.95 0.00 95 1010.2
20260903075414 56 98 1.0 8.0 0.00 0.95 0.00 95 1010.1
20260903075016 56 37 2.0 8.0 0.00 0.95 0.00 95 1010.2
20260903074924 56 283 2.0 10.0 0.00 0.95 0.00 95 1010.2
20260903074527 56 51 2.0 10.0 0.00 0.95 0.00 95 1010.2
20260903074414 56 54 1.0 10.0 0.00 0.95 0.00 95 1010.2
20260903074017 56 293 2.0 10.0 0.00 0.95 0.00 95 1010.2
20260903073922 56 333 2.0 10.0 0.00 0.95 0.00 95 1010.2
20260903073526 56 89 3.0 10.0 0.00 0.95 0.00 95 1010.2
20260903073412 56 238 2.0 10.0 0.00 0.95 0.00 95 1010.3
20260903073014 56 287 2.0 8.0 0.00 0.95 0.00 95 1010.3
20260903072916 56 63 2.0 8.0 0.00 0.95 0.00 95 1010.3
20260903072522 56 238 3.0 8.0 0.00 0.95 0.00 95 1010.3
20260903072423 56 63 2.0 8.0 0.00 0.95 0.00 95 1010.2
20260903072030 56 98 3.0 8.0 0.00 0.95 0.00 95 1010.2
20260903071912 56 80 3.0 9.0 0.00 0.95 0.00 95 1010.2
20260903071520 56 54 2.0 9.0 0.00 0.95 0.00 95 1010.2
20260903071421 56 289 2.0 9.0 0.00 0.95 0.00 95 1010.2
20260903071028 56 66 2.0 8.0 0.00 0.95 0.00 95 1010.2
20260903070929 56 73 3.0 8.0 0.00 0.95 0.00 95 1010.2
20260903070518 56 203 2.0 8.0 0.00 0.95 0.00 95 1010.2
20260903070418 56 254 4.0 8.0 0.00 0.95 0.00 95 1010.3
20260903070033 56 49 2.0 8.0 0.00 0.95 0.95 95 1010.3
20260903065930 56 140 2.0 6.0 0.00 0.95 0.95 95 1010.2
20260903065517 56 22 2.0 7.0 0.00 0.95 0.95 95 1010.1
20260903065418 56 233 2.0 7.0 0.00 0.95 0.95 95 1010.2
20260903065024 56 31 3.0 10.0 0.00 0.95 0.95 95 1010.1
20260903064928 56 49 3.0 10.0 0.00 0.95 0.95 95 1010.2
20260903064514 56 267 2.0 8.0 0.00 0.95 0.95 95 1010.2
20260903064415 56 134 2.0 8.0 0.00 0.95 0.95 95 1010.1
20260903064020 56 309 2.0 8.0 0.00 0.95 0.95 95 1010.1
20260903063921 56 109 3.0 8.0 0.00 0.95 0.95 95 1010.1
20260903063527 56 83 2.0 6.0 0.00 0.95 0.95 95 1010.2
20260903063426 56 161 2.0 6.0 0.00 0.95 0.95 95 1010.1
20260903063031 56 235 3.0 6.0 0.00 0.95 0.95 95 1010.2
20260903062913 56 69 2.0 6.0 0.00 0.95 0.95 95 1010.2
20260903062519 56 109 2.0 9.0 0.00 0.95 0.95 95 1010.2
20260903062421 56 335 1.0 9.0 0.00 0.95 0.95 95 1010.2
20260903062023 57 293 3.0 9.0 0.00 0.95 0.95 95 1010.2
20260903061930 57 94 3.0 9.0 0.00 0.95 0.95 95 1010.3
20260903061530 57 235 2.0 11.0 0.00 0.95 0.95 95 1010.2
20260903061414 57 303 2.0 11.0 0.00 0.95 0.95 95 1010.2
20260903061015 57 68 3.0 12.0 0.00 0.95 0.95 95 1010.3
20260903060920 57 51 2.0 12.0 0.00 0.95 0.95 95 1010.3
20260903060523 57 235 3.0 12.0 0.00 0.95 0.95 95 1010.3
20260903060424 57 123 2.0 12.0 0.00 0.95 0.95 95 1010.3
20260903060021 57 217 2.0 7.0 0.00 0.95 0.95 95 1010.3
20260903055925 57 90 2.0 7.0 0.00 0.95 0.95 95 1010.3
20260903055531 57 248 2.0 7.0 0.00 0.95 0.95 95 1010.4
20260903055413 57 330 3.0 7.0 0.00 0.95 0.95 95 1010.3
20260903055020 57 283 3.0 7.0 0.00 0.95 0.95 95 1010.4
20260903054922 57 96 3.0 7.0 0.00 0.95 0.95 95 1010.3
20260903054529 57 328 2.0 6.0 0.00 0.95 0.95 95 1010.4
20260903054412 57 88 1.0 6.0 0.00 0.95 0.95 95 1010.4
20260903054019 57 121 2.0 8.0 0.00 0.95 0.95 95 1010.2
20260903053921 57 311 3.0 8.0 0.00 0.95 0.95 95 1010.2
20260903053519 57 349 2.0 6.0 0.00 0.95 0.95 95 1010.3
20260903053419 57 34 2.0 6.0 0.00 0.95 0.95 95 1010.3
20260903053023 57 34 2.0 10.0 0.00 0.95 0.95 95 1010.5
20260903052925 57 120 2.0 10.0 0.00 0.95 0.95 95 1010.3
20260903052530 57 68 3.0 10.0 0.00 0.95 0.95 95 1010.3
20260903052413 57 85 3.0 10.0 0.00 0.95 0.95 95 1010.4
20260903052020 57 172 2.0 11.0 0.00 0.95 0.95 95 1010.3
20260903051923 57 311 2.0 11.0 0.00 0.95 0.95 95 1010.3
20260903051529 57 319 1.0 11.0 0.00 0.95 0.95 95 1010.3
20260903051431 57 53 2.0 11.0 0.00 0.95 0.95 95 1010.3
20260903051033 57 200 1.0 5.0 0.00 0.95 0.95 95 1010.3
20260903050914 57 57 1.0 5.0 0.00 0.95 0.95 95 1010.2
20260903050520 57 117 2.0 7.0 0.00 0.95 0.95 95 1010.3
20260903050420 57 340 2.0 7.0 0.00 0.95 0.95 95 1010.2
20260903050017 57 295 3.0 7.0 0.00 0.96 0.95 95 1010.2
20260903045919 57 131 3.0 7.0 0.00 0.96 0.95 95 1010.2
20260903045525 57 58 2.0 6.0 0.00 0.96 0.95 95 1010.3
20260903045428 57 13 2.0 6.0 0.00 0.96 0.95 95 1010.3
20260903045028 57 106 3.0 9.0 0.00 0.96 0.95 95 1010.3
20260903044914 57 290 2.0 9.0 0.01 0.96 0.95 95 1010.3
20260903044516 57 207 2.0 9.0 0.04 0.96 0.95 95 1010.2
20260903044421 57 239 2.0 9.0 0.04 0.96 0.95 95 1010.2
20260903044023 57 15 1.0 5.0 0.06 0.96 0.95 95 1010.2
20260903043929 57 127 2.0 5.0 0.06 0.96 0.95 95 1010.2
20260903043531 57 234 1.0 5.0 0.11 0.96 0.95 95 1010.2
20260903043414 57 46 1.0 5.0 0.13 0.96 0.95 95 1010.2
20260903043015 57 81 1.0 5.0 0.13 0.96 0.95 95 1010.1
20260903042916 57 75 2.0 7.0 0.13 0.96 0.95 95 1010.1
20260903042521 57 321 2.0 9.0 0.13 0.96 0.95 95 1010.1
20260903042423 57 113 3.0 9.0 0.13 0.96 0.95 95 1010.1
20260903042028 57 110 2.0 9.0 0.14 0.96 0.95 95 1010.0
20260903041929 57 292 2.0 9.0 0.14 0.96 0.95 95 1010.1
20260903041516 57 156 2.0 11.0 0.14 0.96 0.95 95 1010.0
20260903041417 57 34 2.0 11.0 0.14 0.96 0.95 95 1010.1
20260903041024 57 191 4.0 11.0 0.14 0.96 0.95 95 1010.0
20260903040923 57 91 3.0 11.0 0.14 0.96 0.95 95 1010.0
20260903040527 57 114 1.0 7.0 0.14 0.96 0.95 95 1009.9
20260903040425 57 236 3.0 7.0 0.14 0.96 0.95 95 1009.9
20260903040017 57 94 2.0 7.0 0.14 0.97 0.95 95 1009.8
20260903035920 57 212 2.0 7.0 0.14 0.97 0.95 95 1009.8
20260903035524 57 258 1.0 10.0 0.14 0.97 0.95 95 1009.8
20260903035425 57 308 1.0 10.0 0.14 0.97 0.95 95 1009.9
20260903035030 57 86 1.0 10.0 0.14 0.97 0.95 95 1009.9
20260903034929 57 124 1.0 5.0 0.13 0.96 0.94 95 1009.9
20260903034531 57 30 2.0 4.0 0.10 0.93 0.91 95 1009.9
20260903034431 57 41 1.0 4.0 0.10 0.92 0.90 95 1009.9
20260903034018 57 55 1.0 5.0 0.09 0.91 0.89 95 1009.8
20260903033920 57 274 0.0 8.0 0.08 0.90 0.88 95 1009.8
20260903033528 57 236 1.0 8.0 0.03 0.85 0.83 95 1009.8
20260903033428 57 278 2.0 8.0 0.02 0.84 0.82 95 1009.8
20260903033026 57 269 2.0 9.0 0.02 0.84 0.82 95 1009.6
20260903032913 57 62 1.0 9.0 0.02 0.84 0.82 95 1009.6
20260903032514 57 113 3.0 9.0 0.02 0.84 0.82 95 1009.6
20260903032419 57 10 3.0 9.0 0.01 0.83 0.81 95 1009.4
20260903032020 57 271 1.0 6.0 0.01 0.83 0.81 95 1009.5
20260903031925 57 335 2.0 6.0 0.01 0.83 0.81 95 1009.6
20260903031526 57 81 2.0 8.0 0.01 0.83 0.81 94 1009.4
20260903031413 57 106 1.0 8.0 0.01 0.83 0.81 94 1009.4
20260903031014 57 101 2.0 8.0 0.01 0.83 0.81 95 1009.5
20260903030917 57 91 2.0 10.0 0.01 0.83 0.81 94 1009.4
20260903030522 57 294 2.0 10.0 0.01 0.83 0.81 94 1009.4
20260903030422 57 309 2.0 10.0 0.01 0.83 0.81 94 1009.4
20260903030014 57 281 3.0 6.0 0.01 0.83 0.81 94 1009.4
20260903025920 57 298 3.0 6.0 0.01 0.83 0.81 94 1009.4
20260903025524 57 4 2.0 6.0 0.01 0.83 0.81 94 1009.4
20260903025424 57 108 2.0 6.0 0.01 0.83 0.81 94 1009.3
20260903025029 57 304 2.0 6.0 0.01 0.83 0.81 94 1009.3
20260903024930 57 283 1.0 7.0 0.01 0.83 0.81 94 1009.3
20260903024514 57 13 2.0 9.0 0.00 0.82 0.80 94 1009.2
20260903024414 57 275 2.0 9.0 0.00 0.82 0.80 94 1009.3
20260903024019 57 58 2.0 9.0 0.00 0.82 0.80 94 1009.3
20260903023920 57 49 2.0 9.0 0.00 0.82 0.80 94 1009.3
20260903023525 57 64 2.0 9.0 0.00 0.82 0.80 94 1009.3
20260903023425 57 37 4.0 9.0 0.00 0.82 0.80 94 1009.4
20260903023028 57 311 2.0 7.0 0.00 0.82 0.80 94 1009.4
20260903022929 57 274 3.0 7.0 0.00 0.82 0.80 94 1009.3
20260903022533 57 314 2.0 7.0 0.00 0.82 0.80 94 1009.3
20260903022413 57 267 1.0 6.0 0.00 0.82 0.80 93 1009.4
20260903022019 57 276 2.0 9.0 0.00 0.82 0.80 93 1009.4
20260903021921 57 279 3.0 9.0 0.00 0.82 0.80 93 1009.4
20260903021526 57 108 2.0 9.0 0.00 0.82 0.80 93 1009.3
20260903021425 57 293 3.0 9.0 0.00 0.82 0.80 93 1009.4
20260903021024 57 132 2.0 9.0 0.00 0.82 0.80 93 1009.3
20260903020929 57 101 1.0 9.0 0.00 0.82 0.80 93 1009.4
20260903020530 57 233 1.0 4.0 0.00 0.82 0.80 93 1009.3
20260903020412 57 319 1.0 4.0 0.00 0.82 0.80 93 1009.3
20260903020024 58 301 1.0 4.0 0.00 0.82 0.80 93 1009.4
20260903015927 57 304 1.0 6.0 0.00 0.82 0.80 93 1009.3
20260903015533 58 108 2.0 9.0 0.00 0.82 0.80 93 1009.4
20260903015415 58 304 2.0 9.0 0.00 0.82 0.80 93 1009.4
20260903015020 57 20 1.0 9.0 0.00 0.82 0.80 93 1009.4
20260903014920 57 27 2.0 9.0 0.00 0.82 0.80 93 1009.4
20260903014525 58 278 2.0 8.0 0.00 0.82 0.80 93 1009.5
20260903014424 58 205 2.0 9.0 0.00 0.82 0.80 93 1009.5
20260903014028 58 311 2.0 9.0 0.00 0.82 0.80 93 1009.4
20260903013929 58 349 3.0 9.0 0.00 0.82 0.80 93 1009.4
20260903013533 58 219 3.0 9.0 0.00 0.82 0.80 93 1009.4
20260903013414 58 308 1.0 4.0 0.00 0.82 0.80 93 1009.5
20260903013019 58 236 2.0 7.0 0.00 0.82 0.80 93 1009.4
20260903012918 58 319 2.0 7.0 0.00 0.82 0.80 93 1009.4
20260903012520 58 309 2.0 7.0 0.00 0.82 0.80 92 1009.4
20260903012420 58 308 3.0 7.0 0.00 0.82 0.80 92 1009.4
20260903012026 58 110 1.0 11.0 0.00 0.82 0.80 92 1009.2
20260903011928 58 113 1.0 11.0 0.00 0.82 0.80 92 1009.3
20260903011533 58 319 2.0 11.0 0.00 0.82 0.80 92 1009.2
20260903011415 58 93 2.0 11.0 0.00 0.82 0.80 92 1009.2
20260903011019 58 30 2.0 7.0 0.00 0.82 0.80 91 1009.2
20260903010921 59 270 3.0 7.0 0.00 0.82 0.80 91 1009.2
20260903010527 59 92 2.0 7.0 0.00 0.82 0.80 91 1009.1
20260903010428 59 254 1.0 5.0 0.00 0.82 0.80 91 1009.2
20260903010021 59 4 1.0 6.0 0.00 0.82 0.80 91 1009.1
20260903005924 59 304 1.0 6.0 0.00 0.82 0.80 92 1009.1
20260903005525 59 47 2.0 6.0 0.00 0.82 0.80 92 1009.1
20260903005412 59 253 2.0 6.0 0.00 0.82 0.80 92 1009.1
20260903005013 59 142 2.0 7.0 0.00 0.82 0.80 92 1009.2
20260903004917 59 75 1.0 9.0 0.00 0.82 0.80 92 1009.1
20260903004517 59 217 2.0 9.0 0.00 0.82 0.80 92 1009.1
20260903004421 59 273 2.0 9.0 0.00 0.82 0.80 92 1009.1
20260903004021 59 218 1.0 5.0 0.00 0.82 0.80 93 1009.1
20260903003924 59 312 0.0 5.0 0.00 0.82 0.80 92 1009.1
20260903003531 59 262 2.0 5.0 0.00 0.82 0.80 92 1009.1
20260903003412 59 71 1.0 5.0 0.00 0.82 0.80 93 1009.1
20260903003017 59 239 1.0 5.0 0.00 0.82 0.80 92 1009.0
20260903002917 58 284 1.0 5.0 0.00 0.82 0.80 92 1009.0
20260903002521 59 8 1.0 5.0 0.00 0.82 0.80 92 1009.0
20260903002420 59 92 2.0 5.0 0.00 0.82 0.80 92 1009.0
20260903002032 59 335 0.0 6.0 0.00 0.82 0.80 92 1009.0
20260903001915 59 101 1.0 6.0 0.00 0.82 0.80 92 1008.9
20260903001519 59 56 2.0 6.0 0.00 0.82 0.80 92 1008.8
20260903001418 59 58 1.0 6.0 0.00 0.82 0.80 92 1008.9
20260903001024 59 13 1.0 4.0 0.00 0.82 0.80 92 1008.9
20260903000924 59 77 2.0 4.0 0.00 0.82 0.80 92 1008.8
20260903000530 59 314 1.0 3.0 0.00 0.82 0.80 93 1008.8
20260903000428 59 51 1.0 3.0 0.00 0.82 0.80 93 1008.8
20260903000022 59 287 1.0 5.0 0.00 0.82 0.80 93 1008.8
20260902235922 59 75 1.0 5.0 0.00 0.82 0.80 93 1008.8
20260902235525 59 110 2.0 5.0 0.00 0.82 0.80 93 1008.8
20260902235427 59 60 2.0 5.0 0.00 0.82 0.80 93 1008.8
20260902235029 59 304 1.0 2.0 0.00 0.82 0.80 94 1008.7
20260902234931 59 267 1.0 2.0 0.00 0.82 0.80 94 1008.7
20260902234517 59 252 1.0 3.0 0.00 0.82 0.80 95 1008.6
20260902234421 59 221 0.0 3.0 0.00 0.82 0.80 95 1008.6
20260902234022 59 68 1.0 3.0 0.00 0.82 0.80 95 1008.6
20260902233927 59 38 1.0 2.0 0.00 0.82 0.80 95 1008.5
20260902233530 59 71 1.0 2.0 0.00 0.82 0.80 95 1008.5
20260902233431 59 208 1.0 2.0 0.00 0.82 0.80 95 1008.5
20260902233032 59 250 0.0 4.0 0.00 0.82 0.80 95 1008.4
20260902232919 59 293 0.0 4.0 0.00 0.82 0.80 95 1008.5
20260902232522 59 60 0.0 4.0 0.00 0.82 0.80 95 1008.4
20260902232425 59 250 1.0 4.0 0.00 0.82 0.80 95 1008.4
20260902232031 58 262 1.0 2.0 0.00 0.82 0.80 95 1008.4
20260902231912 58 330 0.0 2.0 0.01 0.82 0.80 95 1008.2
20260902231517 58 319 0.0 2.0 0.01 0.82 0.80 95 1008.2
20260902231419 58 303 1.0 2.0 0.01 0.82 0.80 95 1008.2
20260902231023 58 9 1.0 3.0 0.01 0.82 0.80 95 1008.1
20260902230925 58 9 1.0 3.0 0.01 0.82 0.80 95 1008.2
20260902230532 58 57 1.0 3.0 0.01 0.82 0.80 95 1008.1
20260902230413 58 30 1.0 3.0 0.01 0.82 0.80 95 1008.2
20260902230027 58 253 0.0 2.0 0.02 0.82 0.80 95 1008.1
20260902225928 58 250 1.0 2.0 0.02 0.82 0.80 95 1008.1
20260902225531 58 103 1.0 2.0 0.02 0.82 0.80 95 1008.0
20260902225412 58 37 0.0 1.0 0.02 0.82 0.80 95 1008.0
20260902225017 58 103 0.0 3.0 0.02 0.82 0.80 95 1008.0
20260902224917 58 106 0.0 3.0 0.02 0.82 0.80 95 1008.0
20260902224520 58 67 1.0 3.0 0.03 0.82 0.80 95 1007.9
20260902224419 58 68 1.0 3.0 0.03 0.82 0.80 95 1007.9
20260902224022 58 303 1.0 4.0 0.03 0.82 0.80 95 1008.0
20260902223924 58 304 1.0 4.0 0.03 0.82 0.80 95 1007.9
20260902223531 58 55 1.0 4.0 0.03 0.82 0.80 95 1007.8
20260902223431 58 68 1.0 4.0 0.03 0.82 0.80 95 1007.9
20260902223016 58 335 1.0 5.0 0.03 0.82 0.80 95 1007.7
20260902222919 58 67 1.0 5.0 0.03 0.82 0.80 95 1007.8
20260902222523 58 359 1.0 5.0 0.03 0.82 0.80 95 1007.8
20260902222422 58 333 1.0 5.0 0.03 0.82 0.80 95 1007.8
20260902222026 58 266 0.0 5.0 0.02 0.81 0.79 95 1007.7
20260902221929 58 330 1.0 5.0 0.02 0.81 0.79 95 1007.8
20260902221515 58 294 1.0 6.0 0.02 0.81 0.79 95 1007.8
20260902221416 58 169 1.0 6.0 0.02 0.81 0.79 95 1007.8
20260902221015 58 206 0.0 6.0 0.02 0.81 0.79 95 1007.6
20260902220921 57 268 1.0 6.0 0.02 0.81 0.79 95 1007.6
20260902220524 57 20 1.0 2.0 0.02 0.81 0.79 95 1007.7
20260902220429 57 302 1.0 2.0 0.02 0.81 0.79 95 1007.7
20260902220019 58 122 1.0 2.0 0.01 0.80 0.78 96 1007.6
20260902215918 58 293 0.0 2.0 0.01 0.80 0.78 95 1007.7
20260902215522 58 349 1.0 2.0 0.01 0.80 0.78 95 1007.6
20260902215422 58 316 1.0 2.0 0.01 0.80 0.78 96 1007.6
20260902215025 58 52 0.0 3.0 0.01 0.80 0.78 96 1007.6
20260902214925 58 52 0.0 3.0 0.01 0.80 0.78 96 1007.5
20260902214529 57 66 1.0 6.0 0.01 0.79 0.77 96 1007.6
20260902214413 57 326 1.0 6.0 0.01 0.79 0.77 96 1007.6
20260902214018 57 314 1.0 6.0 0.01 0.79 0.77 96 1007.5
20260902213916 57 109 2.0 6.0 0.01 0.79 0.77 96 1007.5
20260902213521 57 300 1.0 5.0 0.02 0.79 0.77 96 1007.6
20260902213418 57 89 1.0 5.0 0.02 0.79 0.77 96 1007.5
20260902213022 57 285 2.0 5.0 0.02 0.79 0.77 95 1007.5
20260902212923 57 52 1.0 5.0 0.03 0.79 0.77 96 1007.5
20260902212525 57 326 1.0 4.0 0.04 0.79 0.77 95 1007.5
20260902212427 57 206 1.0 4.0 0.04 0.79 0.77 95 1007.5
20260902212033 57 79 1.0 4.0 0.05 0.79 0.77 95 1007.5
20260902211914 57 46 1.0 4.0 0.06 0.79 0.77 96 1007.4
20260902211517 57 109 1.0 5.0 0.07 0.79 0.77 95 1007.4
20260902211419 57 49 1.0 5.0 0.07 0.79 0.77 95 1007.4
20260902211023 57 54 2.0 7.0 0.08 0.79 0.77 95 1007.4
20260902210924 57 39 2.0 7.0 0.08 0.79 0.77 95 1007.4
20260902210529 57 286 2.0 7.0 0.11 0.79 0.77 95 1007.4
20260902210427 57 275 2.0 7.0 0.12 0.79 0.77 95 1007.4
20260902210015 57 342 2.0 6.0 0.13 0.79 0.77 95 1007.4
20260902205918 57 75 2.0 6.0 0.13 0.79 0.77 95 1007.4
20260902205516 57 320 1.0 4.0 0.14 0.79 0.77 95 1007.3
20260902205421 57 41 1.0 4.0 0.14 0.79 0.77 95 1007.3
20260902205021 57 86 2.0 4.0 0.14 0.79 0.77 95 1007.2
20260902204924 57 70 2.0 4.0 0.14 0.79 0.77 95 1007.2
20260902204529 57 11 1.0 7.0 0.14 0.78 0.76 95 1007.2
20260902204413 57 99 2.0 12.0 0.14 0.78 0.76 95 1007.2
20260902204018 57 49 3.0 12.0 0.15 0.78 0.76 95 1007.2
20260902203921 57 32 2.0 12.0 0.15 0.78 0.76 95 1007.2
20260902203527 57 107 4.0 12.0 0.15 0.77 0.75 95 1007.0
20260902203425 57 120 3.0 12.0 0.15 0.77 0.75 95 1007.3
20260902203029 57 89 3.0 10.0 0.14 0.76 0.74 95 1007.1
20260902202913 57 68 3.0 10.0 0.15 0.76 0.74 95 1007.3
20260902202520 57 64 4.0 10.0 0.14 0.75 0.73 95 1007.1
20260902202423 57 276 4.0 10.0 0.14 0.75 0.73 95 1007.1
20260902202030 56 44 3.0 10.0 0.14 0.74 0.72 95 1006.9
20260902201932 56 293 3.0 10.0 0.14 0.74 0.72 95 1007.0
20260902201516 56 269 4.0 13.0 0.13 0.72 0.70 95 1006.9
20260902201419 56 63 3.0 13.0 0.12 0.71 0.69 95 1006.7
20260902201023 56 37 5.0 13.0 0.13 0.71 0.69 95 1006.9
20260902200923 56 31 5.0 12.0 0.13 0.71 0.69 95 1006.7
20260902200527 56 304 3.0 11.0 0.10 0.67 0.65 95 1006.8
20260902200428 56 322 3.0 11.0 0.10 0.67 0.65 95 1006.8
20260902200024 56 324 4.0 15.0 0.09 0.66 0.64 95 1006.9
20260902195925 56 295 4.0 15.0 0.10 0.66 0.64 95 1006.8
20260902195529 56 245 5.0 15.0 0.09 0.65 0.63 95 1006.8
20260902195429 57 11 7.0 15.0 0.09 0.65 0.63 95 1006.6
20260902195016 57 310 4.0 13.0 0.10 0.65 0.63 95 1006.8
20260902194918 57 136 4.0 11.0 0.09 0.64 0.62 95 1006.6
20260902194424 56 292 5.0 11.0 0.09 0.64 0.62 95 1006.4
20260902194024 56 44 4.0 11.0 0.09 0.63 0.61 95 1006.4
20260902193930 56 77 4.0 11.0 0.09 0.63 0.61 95 1006.3
20260902193533 56 269 4.0 16.0 0.09 0.62 0.60 95 1006.4
20260902193418 56 56 4.0 16.0 0.09 0.62 0.60 95 1006.2
20260902192918 57 159 4.0 12.0 0.09 0.61 0.59 95 1006.2
20260902192520 57 96 5.0 11.0 0.09 0.61 0.59 95 1006.3
20260902192422 57 117 5.0 11.0 0.11 0.61 0.59 95 1006.2
20260902192026 57 319 3.0 12.0 0.10 0.60 0.58 95 1006.2
20260902191929 57 132 4.0 12.0 0.11 0.60 0.58 95 1006.1
20260902191533 57 213 4.0 14.0 0.11 0.59 0.57 95 1006.1
20260902191415 57 117 3.0 15.0 0.12 0.59 0.57 95 1006.1
20260902190921 57 247 4.0 17.0 0.12 0.58 0.56 95 1006.2
20260902190526 57 97 4.0 17.0 0.14 0.57 0.55 95 1006.1
20260902190427 57 55 3.0 14.0 0.14 0.57 0.55 95 1006.0
20260902190019 57 292 4.0 11.0 0.14 0.56 0.54 95 1006.1
20260902185918 57 309 2.0 7.0 0.14 0.56 0.54 95 1006.0
20260902185518 57 11 2.0 8.0 0.15 0.56 0.54 95 1006.0
20260902185423 57 323 2.0 8.0 0.15 0.56 0.54 95 1006.0
20260902185021 57 63 2.0 8.0 0.15 0.55 0.53 95 1006.0
20260902184928 57 157 3.0 8.0 0.16 0.55 0.53 95 1005.9
20260902184529 57 128 3.0 7.0 0.17 0.55 0.53 95 1005.9
20260902184414 57 70 3.0 7.0 0.18 0.55 0.53 95 1006.0
20260902184014 57 122 3.0 7.0 0.18 0.54 0.52 95 1006.0
20260902183915 57 249 3.0 7.0 0.17 0.53 0.51 95 1006.0
20260902183519 57 60 1.0 7.0 0.18 0.53 0.51 95 1005.8
20260902183419 57 293 2.0 7.0 0.17 0.52 0.50 95 1005.8
20260902183023 57 82 2.0 7.0 0.17 0.52 0.50 94 1005.8
20260902182925 57 62 2.0 7.0 0.18 0.52 0.50 94 1005.8
20260902182530 57 302 2.0 6.0 0.16 0.50 0.48 94 1005.7
20260902182413 57 58 1.0 6.0 0.16 0.50 0.48 94 1005.8
20260902182016 57 15 2.0 6.0 0.15 0.49 0.47 94 1005.8
20260902181919 57 129 2.0 6.0 0.15 0.49 0.47 94 1005.8
20260902181524 57 89 0.0 3.0 0.15 0.48 0.46 94 1005.7
20260902181426 57 86 1.0 3.0 0.14 0.47 0.45 94 1005.7
20260902181031 57 201 1.0 3.0 0.13 0.46 0.44 94 1005.6
20260902180932 57 214 0.0 3.0 0.12 0.45 0.43 94 1005.7
20260902180518 57 100 1.0 3.0 0.10 0.43 0.41 94 1005.7
20260902180417 57 331 1.0 3.0 0.10 0.43 0.41 94 1005.7
20260902180033 57 255 1.0 5.0 0.09 0.42 0.40 94 1005.6
20260902175916 57 254 1.0 5.0 0.09 0.42 0.40 94 1005.7
20260902175524 57 7 0.0 5.0 0.09 0.41 0.39 94 1005.6
20260902175426 57 337 1.0 5.0 0.09 0.41 0.39 94 1005.7
20260902175033 57 134 2.0 3.0 0.09 0.40 0.38 94 1005.4
20260902174916 57 103 1.0 3.0 0.08 0.39 0.37 94 1005.6
20260902174516 57 238 1.0 3.0 0.08 0.38 0.36 94 1005.5
20260902174419 57 269 0.0 3.0 0.07 0.37 0.35 94 1005.5
20260902174023 57 45 1.0 4.0 0.06 0.36 0.34 94 1005.4
20260902173925 57 75 1.0 4.0 0.07 0.36 0.34 94 1005.5
20260902173531 57 39 1.0 6.0 0.07 0.35 0.33 94 1005.4
20260902173412 57 316 0.0 6.0 0.07 0.35 0.33 94 1005.4
20260902173020 57 67 1.0 6.0 0.08 0.34 0.32 94 1005.4
20260902172923 57 296 1.0 6.0 0.08 0.34 0.32 94 1005.5
20260902172527 57 275 1.0 4.0 0.10 0.34 0.32 94 1005.4
20260902172433 57 301 1.0 4.0 0.10 0.34 0.32 94 1005.3
20260902172033 57 275 0.0 3.0 0.13 0.34 0.32 94 1005.3
20260902171917 57 275 0.0 3.0 0.14 0.34 0.32 94 1005.3
20260902171515 57 236 1.0 3.0 0.14 0.33 0.31 94 1005.1
20260902171421 57 301 1.0 3.0 0.14 0.33 0.31 94 1005.1
20260902171023 57 2 1.0 5.0 0.15 0.33 0.31 94 1005.2
20260902170923 57 1 1.0 5.0 0.16 0.33 0.31 94 1005.2
20260902170527 57 146 2.0 5.0 0.17 0.33 0.31 94 1005.3
20260902170426 57 300 1.0 5.0 0.17 0.33 0.31 94 1005.3
20260902170022 57 91 1.0 5.0 0.18 0.33 0.31 94 1005.2
20260902165924 57 31 1.0 5.0 0.18 0.33 0.31 94 1005.1
20260902165531 57 284 1.0 5.0 0.18 0.32 0.30 94 1005.2
20260902165413 57 241 1.0 4.0 0.18 0.32 0.30 94 1005.2
20260902165016 57 302 1.0 4.0 0.18 0.31 0.29 94 1005.2
20260902164916 57 142 1.0 4.0 0.18 0.31 0.29 94 1005.3
20260902164520 57 311 1.0 2.0 0.18 0.30 0.28 94 1005.2
20260902164421 57 303 1.0 2.0 0.18 0.30 0.28 94 1005.3
20260902164025 57 288 1.0 4.0 0.17 0.29 0.27 94 1005.3
20260902163928 57 217 1.0 4.0 0.17 0.29 0.27 94 1005.4
20260902163515 57 115 1.0 4.0 0.17 0.28 0.26 94 1005.5
20260902163416 57 303 1.0 3.0 0.17 0.28 0.26 94 1005.6
20260902163022 57 258 0.0 3.0 0.15 0.26 0.24 94 1005.5
20260902162924 57 220 0.0 3.0 0.15 0.26 0.24 94 1005.6
20260902162528 57 318 1.0 3.0 0.14 0.24 0.22 94 1005.8
20260902162429 57 60 1.0 3.0 0.13 0.23 0.21 94 1005.9
20260902162018 57 15 1.0 3.0 0.11 0.21 0.19 93 1006.2
20260902161918 57 326 1.0 3.0 0.10 0.20 0.18 93 1006.1
20260902161522 57 215 1.0 3.0 0.10 0.19 0.17 93 1006.2
20260902161424 57 335 0.0 2.0 0.10 0.19 0.17 93 1006.1
20260902161029 57 51 0.0 2.0 0.08 0.17 0.15 93 1006.2
20260902160931 57 304 0.0 1.0 0.08 0.17 0.15 93 1006.2
20260902160518 57 305 0.0 2.0 0.07 0.16 0.14 93 1006.2
20260902160416 57 304 0.0 2.0 0.06 0.15 0.13 93 1006.2
20260902160027 57 110 0.0 2.0 0.07 0.15 0.13 93 1006.2
20260902155931 57 306 1.0 2.0 0.06 0.14 0.12 93 1006.3
20260902155533 57 328 0.0 1.0 0.06 0.14 0.12 93 1006.3
20260902155421 57 15 0.0 1.0 0.06 0.14 0.12 93 1006.3
20260902155021 57 15 0.0 1.0 0.06 0.13 0.11 93 1006.3
20260902154921 57 309 0.0 1.0 0.06 0.13 0.11 93 1006.4
20260902154525 57 4 0.0 1.0 0.06 0.12 0.10 93 1006.4
20260902154427 57 4 0.0 1.0 0.06 0.12 0.10 93 1006.4
20260902154030 57 4 0.0 3.0 0.07 0.12 0.10 93 1006.4
20260902153932 57 4 0.0 3.0 0.06 0.11 0.09 93 1006.4
20260902153521 57 299 0.0 4.0 0.06 0.11 0.09 93 1006.6
20260902153422 57 300 0.0 4.0 0.07 0.11 0.09 93 1006.5
20260902153026 57 310 1.0 4.0 0.07 0.11 0.09 92 1006.5
20260902152928 57 65 1.0 4.0 0.07 0.10 0.08 92 1006.6
20260902152532 57 13 1.0 2.0 0.07 0.10 0.08 92 1006.6
20260902152412 57 116 1.0 2.0 0.07 0.10 0.08 92 1006.6
20260902152020 57 44 0.0 1.0 0.08 0.10 0.08 92 1006.6
20260902151922 57 43 0.0 1.0 0.08 0.10 0.08 92 1006.6
20260902151529 57 44 0.0 1.0 0.07 0.09 0.07 92 1006.7
20260902151432 57 44 0.0 1.0 0.07 0.09 0.07 92 1006.7
20260902151015 57 44 0.0 0.0 0.07 0.09 0.07 92 1006.8
20260902150918 57 44 0.0 0.0 0.07 0.09 0.07 92 1006.8
20260902150522 57 44 0.0 0.0 0.07 0.09 0.07 91 1006.7
20260902150424 57 44 0.0 0.0 0.07 0.09 0.07 91 1006.7
20260902150020 58 44 0.0 0.0 0.06 0.08 0.06 91 1006.8
20260902145528 58 44 0.0 1.0 0.06 0.08 0.06 90 1006.8
20260902145429 58 44 0.0 1.0 0.06 0.08 0.06 90 1006.8
20260902145016 58 44 0.0 1.0 0.05 0.07 0.05 90 1006.8
20260902144919 58 44 0.0 1.0 0.05 0.07 0.05 90 1006.8
20260902144523 58 44 1.0 2.0 0.04 0.06 0.04 89 1006.8
20260902144425 58 44 1.0 2.0 0.04 0.06 0.04 89 1006.8
20260902144030 58 321 0.0 5.0 0.03 0.05 0.03 88 1006.8
20260902143932 58 321 0.0 5.0 0.03 0.05 0.03 88 1006.8
20260902143519 59 86 1.0 5.0 0.02 0.04 0.02 87 1006.7
20260902143420 59 77 1.0 5.0 0.02 0.04 0.02 87 1006.7
20260902143021 59 56 0.0 4.0 0.01 0.03 0.01 86 1006.7
20260902142925 59 146 0.0 4.0 0.01 0.03 0.01 86 1006.7
20260902142527 60 146 1.0 4.0 0.01 0.03 0.01 83 1006.7
20260902142431 60 147 1.0 5.0 0.01 0.03 0.01 83 1006.8
20260902142031 60 306 1.0 5.0 0.00 0.02 0.00 82 1006.7
20260902141917 60 306 1.0 5.0 0.00 0.02 0.00 80 1006.7
20260902141519 61 326 1.0 8.0 0.00 0.02 0.00 79 1006.8
20260902141417 61 112 1.0 8.0 0.00 0.02 0.00 79 1006.8
20260902141021 61 288 3.0 8.0 0.00 0.02 0.00 78 1006.6
20260902140921 61 20 3.0 8.0 0.00 0.02 0.00 78 1006.7
20260902140525 61 285 2.0 4.0 0.00 0.02 0.00 78 1006.7
20260902140424 61 295 1.0 6.0 0.00 0.02 0.00 78 1006.7
20260902140020 61 165 1.0 8.0 0.00 0.02 0.00 79 1006.7
20260902135921 61 217 0.0 8.0 0.00 0.02 0.00 78 1006.8
20260902135526 61 98 3.0 8.0 0.00 0.02 0.00 79 1006.8
20260902135429 61 101 3.0 8.0 0.00 0.02 0.00 78 1006.7
20260902135015 60 56 2.0 6.0 0.00 0.02 0.00 80 1006.8
20260902134916 60 115 2.0 6.0 0.00 0.02 0.00 79 1006.8
20260902134522 60 352 1.0 13.0 0.00 0.02 0.00 80 1006.7
20260902134426 60 124 1.0 13.0 0.00 0.02 0.00 79 1006.9
20260902134032 60 21 3.0 13.0 0.00 0.02 0.00 79 1006.9
20260902133915 60 77 2.0 4.0 0.00 0.02 0.00 80 1006.9
20260902133523 60 302 1.0 11.0 0.00 0.02 0.00 80 1006.9
20260902133424 60 315 2.0 11.0 0.00 0.02 0.00 80 1006.9
20260902133029 60 278 1.0 11.0 0.00 0.02 0.00 80 1007.0
20260902132913 60 349 3.0 11.0 0.00 0.02 0.00 80 1007.0
20260902132520 60 113 3.0 10.0 0.00 0.02 0.00 80 1007.1
20260902132422 60 261 3.0 10.0 0.00 0.02 0.00 80 1007.0
20260902132027 60 84 2.0 5.0 0.00 0.02 0.00 81 1007.2
20260902131928 60 35 1.0 4.0 0.00 0.02 0.00 81 1007.2
20260902131533 60 70 2.0 5.0 0.00 0.02 0.00 81 1007.1
20260902131415 60 247 1.0 5.0 0.00 0.02 0.00 81 1007.1
20260902131022 60 259 2.0 9.0 0.00 0.02 0.00 81 1007.3
20260902130924 60 14 2.0 9.0 0.00 0.02 0.00 81 1007.3
20260902130529 60 285 2.0 9.0 0.00 0.02 0.00 81 1007.3
20260902130428 60 113 2.0 9.0 0.00 0.02 0.00 81 1007.4
20260902130018 60 39 2.0 7.0 0.00 0.02 0.00 82 1007.5
20260902125922 60 178 3.0 8.0 0.00 0.02 0.00 82 1007.5
20260902125522 60 236 2.0 12.0 0.00 0.02 0.00 82 1007.4
20260902125423 60 291 2.0 12.0 0.00 0.02 0.00 82 1007.5
20260902125029 59 316 3.0 12.0 0.00 0.02 0.00 83 1007.6
20260902124932 59 199 4.0 12.0 0.00 0.02 0.00 82 1007.6
20260902124528 59 294 2.0 13.0 0.00 0.02 0.00 83 1007.6
20260902124431 59 72 2.0 13.0 0.00 0.02 0.00 83 1007.7
20260902124020 59 53 1.0 13.0 0.00 0.02 0.00 84 1007.7
20260902123919 59 49 2.0 13.0 0.00 0.02 0.00 84 1007.7
20260902123524 59 314 2.0 6.0 0.00 0.02 0.00 85 1007.8
20260902123423 59 75 1.0 6.0 0.00 0.02 0.00 85 1007.9
20260902123023 59 354 1.0 9.0 0.00 0.02 0.00 85 1007.9
20260902122923 59 137 1.0 9.0 0.00 0.02 0.00 85 1007.9
20260902122528 59 173 1.0 9.0 0.00 0.02 0.00 84 1008.0
20260902122431 59 117 1.0 9.0 0.00 0.02 0.00 84 1008.1
20260902122018 60 250 2.0 7.0 0.00 0.02 0.00 83 1008.1
20260902121919 60 76 3.0 7.0 0.00 0.02 0.00 82 1008.1
20260902121523 60 100 2.0 8.0 0.00 0.02 0.00 81 1008.1
20260902121425 60 70 2.0 8.0 0.00 0.02 0.00 81 1008.2
20260902121027 60 81 3.0 9.0 0.00 0.02 0.00 81 1008.2
20260902120928 60 110 3.0 9.0 0.00 0.02 0.00 81 1008.1
20260902120532 60 52 3.0 11.0 0.00 0.02 0.00 80 1008.2
20260902120412 61 121 3.0 11.0 0.00 0.02 0.00 80 1008.3
20260902120029 61 137 4.0 15.0 0.00 0.02 0.00 79 1008.4
20260902115932 61 41 4.0 15.0 0.00 0.02 0.00 79 1008.3
20260902115516 61 300 4.0 15.0 0.00 0.02 0.00 77 1008.2
20260902115418 61 86 3.0 15.0 0.00 0.02 0.00 77 1008.2
20260902115021 61 139 3.0 14.0 0.00 0.02 0.00 78 1008.3
20260902114923 61 4 3.0 14.0 0.00 0.02 0.00 78 1008.4
20260902114521 61 274 4.0 14.0 0.00 0.02 0.00 77 1008.4
20260902114426 61 286 1.0 6.0 0.00 0.02 0.00 78 1008.3
20260902114027 61 283 1.0 5.0 0.00 0.02 0.00 79 1008.5
20260902113934 61 82 1.0 5.0 0.00 0.02 0.00 79 1008.4
20260902113532 61 320 2.0 6.0 0.00 0.02 0.00 78 1008.5
20260902113418 61 95 2.0 6.0 0.00 0.02 0.00 78 1008.4
20260902113019 61 301 1.0 6.0 0.00 0.02 0.00 80 1008.5
20260902112921 61 124 2.0 6.0 0.00 0.02 0.00 79 1008.5
20260902112523 61 289 1.0 5.0 0.00 0.02 0.00 79 1008.6
20260902112424 61 86 2.0 5.0 0.00 0.02 0.00 79 1008.5
20260902112029 61 252 2.0 11.0 0.00 0.02 0.00 78 1008.6
20260902111929 61 56 2.0 11.0 0.00 0.02 0.00 78 1008.7
20260902111530 61 71 4.0 11.0 0.00 0.02 0.00 78 1008.6
20260902111429 61 81 4.0 11.0 0.00 0.02 0.00 79 1008.7
20260902111032 61 350 3.0 11.0 0.00 0.02 0.00 79 1008.9
20260902110913 61 323 1.0 7.0 0.00 0.02 0.00 79 1008.9
20260902110516 61 127 1.0 7.0 0.00 0.02 0.00 80 1008.9
20260902110418 60 276 2.0 7.0 0.00 0.02 0.00 79 1008.9
20260902110032 60 104 1.0 8.0 0.00 0.02 0.00 80 1009.0
20260902105913 60 89 1.0 8.0 0.00 0.02 0.00 80 1008.9
20260902105516 60 296 1.0 8.0 0.00 0.02 0.00 81 1009.0
20260902105418 60 303 1.0 5.0 0.00 0.02 0.00 80 1009.0
20260902105021 60 113 1.0 7.0 0.00 0.02 0.00 80 1009.0
20260902104922 60 253 1.0 7.0 0.00 0.02 0.00 80 1009.1
20260902104526 60 13 1.0 8.0 0.00 0.02 0.00 81 1009.1
20260902104428 60 285 1.0 8.0 0.00 0.02 0.00 81 1009.2
20260902104032 60 283 3.0 10.0 0.00 0.02 0.00 81 1009.1
20260902103914 60 13 3.0 10.0 0.00 0.02 0.00 81 1009.2
20260902103518 60 84 4.0 10.0 0.00 0.02 0.00 82 1009.3
20260902103418 60 98 3.0 10.0 0.00 0.02 0.00 83 1009.3
20260902103021 60 222 2.0 11.0 0.00 0.02 0.00 83 1009.4
20260902102922 60 260 3.0 11.0 0.00 0.02 0.00 83 1009.4
20260902102522 59 108 3.0 11.0 0.00 0.02 0.00 84 1009.5
20260902102428 59 94 3.0 11.0 0.00 0.02 0.00 85 1009.6
20260902102025 59 101 1.0 5.0 0.00 0.02 0.00 86 1009.5
20260902101930 59 246 1.0 5.0 0.00 0.02 0.00 87 1009.5
20260902101529 59 269 1.0 5.0 0.00 0.02 0.00 86 1009.5
20260902101416 59 59 1.0 5.0 0.00 0.02 0.00 87 1009.5
20260902101017 59 306 1.0 2.0 0.00 0.02 0.00 87 1009.5
20260902100919 58 268 1.0 3.0 0.00 0.02 0.00 87 1009.5
20260902100522 58 127 0.0 3.0 0.00 0.02 0.00 88 1009.5
20260902100423 58 217 0.0 3.0 0.00 0.02 0.00 88 1009.5
20260902100018 59 319 0.0 2.0 0.00 0.02 0.00 87 1009.6
20260902095918 59 319 0.0 6.0 0.00 0.02 0.00 87 1009.6
20260902095521 59 21 0.0 6.0 0.00 0.02 0.00 87 1009.5
20260902095422 59 19 0.0 6.0 0.00 0.02 0.00 87 1009.6
20260902095026 59 58 1.0 5.0 0.00 0.02 0.00 87 1009.6
20260902094927 59 53 0.0 5.0 0.00 0.02 0.00 87 1009.7
20260902094529 59 34 2.0 5.0 0.00 0.02 0.00 87 1009.8
20260902094430 59 56 2.0 6.0 0.00 0.02 0.00 88 1009.8
20260902094015 58 291 1.0 6.0 0.00 0.02 0.00 88 1009.9
20260902093916 59 28 1.0 6.0 0.00 0.02 0.00 88 1009.9
20260902093521 58 84 1.0 7.0 0.00 0.02 0.00 88 1010.0
20260902093422 58 282 1.0 9.0 0.00 0.02 0.00 88 1010.0
20260902093024 58 78 2.0 9.0 0.00 0.02 0.00 88 1010.0
20260902092927 58 29 2.0 12.0 0.00 0.02 0.00 88 1010.1
20260902092531 58 314 2.0 12.0 0.00 0.02 0.00 88 1010.1
20260902092412 59 9 1.0 12.0 0.00 0.02 0.00 89 1010.2
20260902092015 58 68 3.0 12.0 0.00 0.02 0.00 89 1010.3
20260902091918 58 221 4.0 10.0 0.00 0.02 0.00 89 1010.3
20260902091521 58 101 4.0 8.0 0.00 0.02 0.00 89 1010.3
20260902091424 58 127 4.0 8.0 0.00 0.02 0.00 89 1010.3
20260902091023 58 51 3.0 9.0 0.00 0.02 0.00 90 1010.4
20260902090927 58 328 3.0 9.0 0.00 0.02 0.00 90 1010.4
20260902090524 58 188 4.0 9.0 0.00 0.02 0.00 90 1010.4
20260902090428 58 32 4.0 9.0 0.00 0.02 0.00 90 1010.5
20260902090016 58 72 2.0 14.0 0.00 0.02 0.00 90 1010.4
20260902085917 58 241 2.0 14.0 0.00 0.02 0.00 90 1010.5
20260902085551 58 81 3.0 14.0 0.00 0.02 0.00 90 1010.6
20260902085022 58 300 3.0 9.0 0.00 0.02 0.00 90 1010.7
20260902084924 58 275 3.0 9.0 0.00 0.02 0.00 90 1010.5
20260902084527 58 326 3.0 9.0 0.00 0.02 0.00 91 1010.7
20260902084429 58 68 2.0 9.0 0.00 0.02 0.00 91 1010.7
20260902084031 58 316 2.0 12.0 0.00 0.02 0.00 91 1010.7
20260902083913 58 24 4.0 12.0 0.00 0.02 0.00 91 1010.8
20260902083518 58 255 4.0 12.0 0.00 0.02 0.00 91 1010.8
20260902083419 58 293 2.0 12.0 0.00 0.02 0.00 91 1010.8
20260902083024 58 269 3.0 9.0 0.00 0.02 0.00 91 1010.8
20260902082926 58 84 4.0 9.0 0.00 0.02 0.00 91 1010.7
20260902082532 58 11 3.0 12.0 0.00 0.02 0.00 91 1010.9
20260902082415 58 139 3.0 12.0 0.00 0.02 0.00 91 1010.8